| time (UTC) | temp F | wind direction | speed knots | gust knots | rain 1hr in | rain 24hr in | rain mn in | humidity % | barometer mb |
| 20260510171142 | 63 | 285 | 7.0 | 11.3 | 0.00 | 0.00 | 0.00 | 70 | 1010.5 |
| 20260510170643 | 62 | 43 | 0.9 | 11.3 | 0.00 | 0.00 | 0.00 | 70 | 1010.5 |
| 20260510170029 | 62 | 243 | 4.3 | 13.9 | 0.00 | 0.00 | 0.00 | 72 | 1010.6 |
| 20260510165527 | 62 | 332 | 9.6 | 13.9 | 0.00 | 0.00 | 0.00 | 71 | 1010.6 |
| 20260510165028 | 62 | 313 | 7.8 | 13.9 | 0.00 | 0.00 | 0.00 | 70 | 1010.5 |
| 20260510164528 | 61 | 292 | 8.7 | 13.9 | 0.00 | 0.00 | 0.00 | 71 | 1010.5 |
| 20260510164027 | 61 | 338 | 10.4 | 12.2 | 0.00 | 0.00 | 0.00 | 70 | 1010.5 |
| 20260510163528 | 61 | 289 | 9.6 | 14.8 | 0.00 | 0.00 | 0.00 | 70 | 1010.7 |
| 20260510163029 | 61 | 302 | 7.8 | 14.8 | 0.00 | 0.00 | 0.00 | 69 | 1010.7 |
| 20260510162528 | 61 | 309 | 11.3 | 14.8 | 0.00 | 0.00 | 0.00 | 71 | 1010.7 |
| 20260510162027 | 60 | 277 | 7.8 | 13.0 | 0.00 | 0.00 | 0.00 | 71 | 1010.6 |
| 20260510161643 | 60 | 320 | 5.2 | 13.0 | 0.00 | 0.00 | 0.00 | 71 | 1010.6 |
| 20260510161142 | 60 | 301 | 6.1 | 12.2 | 0.00 | 0.00 | 0.00 | 70 | 1010.7 |
| 20260510160528 | 61 | 297 | 6.1 | 12.2 | 0.00 | 0.00 | 0.00 | 70 | 1010.7 |
| 20260510160145 | 61 | 285 | 11.3 | 12.2 | 0.00 | 0.00 | 0.00 | 69 | 1010.7 |
| 20260510155528 | 61 | 239 | 4.3 | 10.4 | 0.00 | 0.00 | 0.00 | 69 | 1010.6 |
| 20260510155257 | 62 | 229 | 5.2 | 13.0 | 0.00 | 0.00 | 0.00 | 71 | 1010.6 |
| 20260510154529 | 62 | 219 | 5.2 | 9.6 | 0.00 | 0.00 | 0.00 | 71 | 1010.4 |
| 20260510154143 | 62 | 228 | 4.3 | 9.6 | 0.00 | 0.00 | 0.00 | 71 | 1010.5 |
| 20260510153528 | 62 | 228 | 6.1 | 11.3 | 0.00 | 0.00 | 0.00 | 69 | 1010.4 |
| 20260510153029 | 62 | 210 | 2.6 | 11.3 | 0.00 | 0.00 | 0.00 | 68 | 1010.4 |
| 20260510152528 | 62 | 213 | 4.3 | 9.6 | 0.00 | 0.00 | 0.00 | 70 | 1010.4 |
| 20260510152027 | 62 | 215 | 7.8 | 9.6 | 0.00 | 0.00 | 0.00 | 70 | 1010.4 |
| 20260510151528 | 62 | 207 | 6.1 | 7.8 | 0.00 | 0.00 | 0.00 | 70 | 1010.3 |
| 20260510151027 | 62 | 160 | 1.7 | 7.8 | 0.00 | 0.00 | 0.00 | 71 | 1010.3 |
| 20260510150642 | 61 | 211 | 1.7 | 12.2 | 0.00 | 0.00 | 0.00 | 71 | 1010.2 |
| 20260510150028 | 61 | 226 | 4.3 | 12.2 | 0.00 | 0.00 | 0.00 | 70 | 1010.3 |
| 20260510145528 | 61 | 249 | 4.3 | 9.6 | 0.00 | 0.00 | 0.00 | 69 | 1010.3 |
| 20260510145026 | 61 | 258 | 6.1 | 17.4 | 0.00 | 0.00 | 0.00 | 70 | 1010.2 |
| 20260510144529 | 61 | 256 | 7.8 | 17.4 | 0.00 | 0.00 | 0.00 | 69 | 1010.1 |
| 20260510144027 | 62 | 278 | 6.1 | 10.4 | 0.00 | 0.00 | 0.00 | 69 | 1010.1 |
| 20260510143528 | 62 | 191 | 0.9 | 7.0 | 0.00 | 0.00 | 0.00 | 75 | 1010.0 |
| 20260510143300 | 62 | 224 | 2.6 | 7.8 | 0.00 | 0.00 | 0.00 | 75 | 1010.0 |
| 20260510142527 | 61 | 196 | 7.8 | 9.6 | 0.00 | 0.00 | 0.00 | 77 | 1009.9 |
| 20260510142142 | 61 | 189 | 1.7 | 9.6 | 0.00 | 0.00 | 0.00 | 77 | 1009.9 |
| 20260510141529 | 61 | 193 | 3.5 | 7.8 | 0.00 | 0.00 | 0.00 | 76 | 1009.9 |
| 20260510141027 | 60 | 166 | 2.6 | 9.6 | 0.00 | 0.00 | 0.00 | 77 | 1009.9 |
| 20260510140644 | 60 | 328 | 1.7 | 9.6 | 0.00 | 0.00 | 0.00 | 78 | 1010.0 |
| 20260510140029 | 59 | 271 | 0.9 | 9.6 | 0.00 | 0.00 | 0.00 | 78 | 1010.1 |
| 20260510135527 | 59 | 354 | 1.7 | 9.6 | 0.00 | 0.00 | 0.00 | 79 | 1010.0 |
| 20260510135027 | 59 | 147 | 5.2 | 9.6 | 0.00 | 0.00 | 0.00 | 79 | 1010.0 |
| 20260510134644 | 59 | 133 | 4.3 | 8.7 | 0.00 | 0.00 | 0.00 | 79 | 1010.0 |
| 20260510134027 | 58 | 102 | 7.8 | 7.8 | 0.00 | 0.00 | 0.00 | 80 | 1009.9 |
| 20260510133643 | 58 | 130 | 3.5 | 7.0 | 0.00 | 0.00 | 0.00 | 80 | 1009.9 |
| 20260510133028 | 58 | 143 | 2.6 | 5.2 | 0.00 | 0.00 | 0.00 | 81 | 1009.9 |
| 20260510132528 | 57 | 138 | 3.5 | 5.2 | 0.00 | 0.00 | 0.00 | 82 | 1010.0 |
| 20260510132027 | 57 | 100 | 0.9 | 7.8 | 0.00 | 0.00 | 0.00 | 83 | 1010.1 |
| 20260510131643 | 57 | 149 | 3.5 | 7.8 | 0.00 | 0.00 | 0.00 | 83 | 1010.1 |
| 20260510131028 | 56 | 179 | 1.7 | 6.1 | 0.00 | 0.00 | 0.00 | 84 | 1010.1 |
| 20260510130527 | 56 | 158 | 1.7 | 5.2 | 0.00 | 0.00 | 0.00 | 83 | 1010.1 |
| 20260510130144 | 56 | 138 | 2.6 | 6.1 | 0.00 | 0.00 | 0.00 | 84 | 1010.1 |
| 20260510125643 | 56 | 162 | 3.5 | 6.1 | 0.00 | 0.00 | 0.00 | 83 | 1010.1 |
| 20260510125027 | 56 | 93 | 2.6 | 7.8 | 0.00 | 0.00 | 0.00 | 85 | 1010.1 |
| 20260510124644 | 56 | 209 | 0.9 | 6.1 | 0.00 | 0.00 | 0.00 | 85 | 1010.0 |
| 20260510124027 | 55 | 300 | 0.9 | 9.6 | 0.00 | 0.00 | 0.00 | 85 | 1009.9 |
| 20260510123643 | 55 | 158 | 4.3 | 9.6 | 0.00 | 0.00 | 0.00 | 86 | 1010.0 |
| 20260510123259 | 54 | 99 | 0.9 | 8.7 | 0.00 | 0.00 | 0.00 | 87 | 1010.0 |
| 20260510122528 | 54 | 169 | 0.9 | 8.7 | 0.00 | 0.00 | 0.00 | 86 | 1010.0 |
| 20260510122027 | 54 | 146 | 2.6 | 8.7 | 0.00 | 0.00 | 0.00 | 86 | 1010.0 |
| 20260510121644 | 54 | 175 | 3.5 | 7.8 | 0.00 | 0.00 | 0.00 | 87 | 1010.1 |
| 20260510121027 | 54 | 142 | 1.7 | 8.7 | 0.00 | 0.00 | 0.00 | 88 | 1010.0 |
| 20260510120643 | 53 | 172 | 2.6 | 7.8 | 0.00 | 0.00 | 0.00 | 89 | 1010.1 |
| 20260510120029 | 53 | 197 | 2.6 | 7.8 | 0.00 | 0.00 | 0.00 | 90 | 1010.0 |
| 20260510115527 | 52 | 229 | 0.0 | 6.1 | 0.00 | 0.00 | 0.00 | 90 | 1010.0 |
| 20260510115143 | 52 | 251 | 1.7 | 5.2 | 0.00 | 0.00 | 0.00 | 90 | 1010.1 |
| 20260510114643 | 52 | 177 | 4.3 | 7.0 | 0.00 | 0.00 | 0.00 | 90 | 1010.0 |
| 20260510114142 | 52 | 161 | 0.9 | 8.7 | 0.00 | 0.00 | 0.00 | 90 | 1010.1 |
| 20260510113643 | 52 | 172 | 6.1 | 8.7 | 0.00 | 0.00 | 0.00 | 90 | 1010.2 |
| 20260510113142 | 52 | 167 | 4.3 | 7.0 | 0.00 | 0.00 | 0.00 | 90 | 1010.1 |
| 20260510112527 | 52 | 208 | 0.0 | 4.3 | 0.00 | 0.00 | 0.00 | 91 | 1010.2 |
| 20260510112142 | 52 | 214 | 0.9 | 5.2 | 0.00 | 0.00 | 0.00 | 91 | 1010.1 |
| 20260510111529 | 51 | 171 | 0.9 | 6.1 | 0.00 | 0.00 | 0.00 | 91 | 1010.1 |
| 20260510111146 | 51 | 195 | 0.9 | 6.1 | 0.00 | 0.00 | 0.00 | 91 | 1010.1 |
| 20260510110758 | 51 | 200 | 4.3 | 5.2 | 0.00 | 0.00 | 0.00 | 91 | 1010.0 |
| 20260510110028 | 51 | 251 | 1.7 | 6.1 | 0.00 | 0.00 | 0.00 | 91 | 1009.9 |
| 20260510105529 | 51 | 164 | 4.3 | 5.2 | 0.00 | 0.00 | 0.00 | 92 | 1009.9 |
| 20260510105144 | 51 | 187 | 0.9 | 5.2 | 0.00 | 0.00 | 0.00 | 91 | 1009.8 |
| 20260510104529 | 51 | 179 | 1.7 | 4.3 | 0.00 | 0.00 | 0.00 | 92 | 1009.6 |
| 20260510104027 | 51 | 199 | 0.9 | 4.3 | 0.00 | 0.00 | 0.00 | 92 | 1009.6 |
| 20260510103528 | 51 | 215 | 0.9 | 3.5 | 0.00 | 0.00 | 0.00 | 92 | 1009.4 |
| 20260510103029 | 51 | 150 | 0.0 | 3.5 | 0.00 | 0.00 | 0.00 | 92 | 1009.4 |
| 20260510102527 | 51 | 183 | 1.7 | 2.6 | 0.00 | 0.00 | 0.00 | 92 | 1009.3 |
| 20260510102027 | 51 | 167 | 0.0 | 3.5 | 0.00 | 0.00 | 0.00 | 92 | 1009.3 |
| 20260510101531 | 51 | 208 | 0.9 | 4.3 | 0.00 | 0.00 | 0.00 | 92 | 1009.2 |
| 20260510101143 | 51 | 215 | 2.6 | 4.3 | 0.00 | 0.00 | 0.00 | 92 | 1009.2 |
| 20260510100528 | 51 | 193 | 1.7 | 2.6 | 0.00 | 0.00 | 0.00 | 92 | 1009.2 |
| 20260510100028 | 50 | 188 | 0.9 | 4.3 | 0.00 | 0.00 | 0.00 | 92 | 1009.0 |
| 20260510095527 | 50 | 188 | 1.7 | 5.2 | 0.00 | 0.00 | 0.00 | 92 | 1009.0 |
| 20260510095142 | 50 | 185 | 1.7 | 6.1 | 0.00 | 0.00 | 0.00 | 92 | 1009.0 |
| 20260510094530 | 51 | 177 | 1.7 | 5.2 | 0.00 | 0.00 | 0.00 | 92 | 1009.0 |
| 20260510094027 | 50 | 188 | 2.6 | 7.0 | 0.00 | 0.00 | 0.00 | 93 | 1008.9 |
| 20260510093528 | 50 | 268 | 0.9 | 4.3 | 0.00 | 0.00 | 0.00 | 93 | 1008.7 |
| 20260510093028 | 50 | 108 | 0.0 | 4.3 | 0.00 | 0.00 | 0.00 | 93 | 1008.8 |
| 20260510092528 | 50 | 164 | 3.5 | 4.3 | 0.00 | 0.00 | 0.00 | 93 | 1008.6 |
| 20260510092027 | 50 | 145 | 2.6 | 9.6 | 0.00 | 0.00 | 0.00 | 93 | 1008.5 |
| 20260510091530 | 50 | 141 | 1.7 | 9.6 | 0.00 | 0.00 | 0.00 | 93 | 1008.6 |
| 20260510091258 | 50 | 168 | 7.8 | 10.4 | 0.00 | 0.00 | 0.00 | 92 | 1008.6 |
| 20260510090802 | 50 | 185 | 5.2 | 8.7 | 0.00 | 0.00 | 0.00 | 92 | 1008.6 |
| 20260510090029 | 50 | 248 | 4.3 | 8.7 | 0.00 | 0.00 | 0.00 | 92 | 1008.5 |
| 20260510085643 | 51 | 195 | 5.2 | 7.8 | 0.00 | 0.00 | 0.00 | 92 | 1008.6 |
| 20260510085028 | 51 | 181 | 5.2 | 7.8 | 0.00 | 0.00 | 0.00 | 91 | 1008.4 |
| 20260510084643 | 51 | 154 | 2.6 | 7.8 | 0.00 | 0.00 | 0.00 | 91 | 1008.3 |
| 20260510084027 | 51 | 202 | 4.3 | 7.0 | 0.00 | 0.00 | 0.00 | 91 | 1008.4 |
| 20260510083643 | 51 | 193 | 4.3 | 7.8 | 0.00 | 0.00 | 0.00 | 91 | 1008.5 |
| 20260510083144 | 51 | 197 | 6.1 | 7.8 | 0.00 | 0.00 | 0.00 | 91 | 1008.5 |
| 20260510082642 | 51 | 216 | 6.1 | 7.8 | 0.00 | 0.00 | 0.00 | 91 | 1008.5 |
| 20260510082142 | 51 | 130 | 3.5 | 8.7 | 0.00 | 0.00 | 0.00 | 91 | 1008.2 |
| 20260510081530 | 51 | 172 | 6.1 | 6.1 | 0.00 | 0.00 | 0.00 | 91 | 1008.6 |
| 20260510081027 | 51 | 233 | 0.9 | 6.1 | 0.00 | 0.00 | 0.00 | 91 | 1009.0 |
| 20260510080528 | 51 | 147 | 2.6 | 4.3 | 0.00 | 0.00 | 0.00 | 91 | 1008.9 |
| 20260510080029 | 51 | 158 | 0.0 | 3.5 | 0.00 | 0.00 | 0.00 | 91 | 1008.9 |
| 20260510075528 | 51 | 196 | 0.9 | 4.3 | 0.00 | 0.00 | 0.00 | 91 | 1009.1 |
| 20260510075027 | 51 | 217 | 2.6 | 4.3 | 0.00 | 0.00 | 0.00 | 91 | 1009.2 |
| 20260510074529 | 51 | 210 | 2.6 | 3.5 | 0.00 | 0.00 | 0.00 | 91 | 1009.1 |
| 20260510074028 | 51 | 199 | 0.0 | 4.3 | 0.00 | 0.00 | 0.00 | 91 | 1009.2 |
| 20260510073528 | 51 | 202 | 2.6 | 4.3 | 0.00 | 0.00 | 0.00 | 91 | 1009.2 |
| 20260510073028 | 51 | 217 | 2.6 | 3.5 | 0.00 | 0.00 | 0.00 | 91 | 1009.4 |
| 20260510072528 | 51 | 239 | 0.0 | 4.3 | 0.00 | 0.00 | 0.00 | 91 | 1009.3 |
| 20260510072142 | 51 | 228 | 0.0 | 6.1 | 0.00 | 0.00 | 0.00 | 91 | 1009.2 |
| 20260510071800 | 51 | 228 | 3.5 | 6.1 | 0.00 | 0.00 | 0.00 | 91 | 1009.3 |
| 20260510071027 | 51 | 214 | 3.5 | 7.8 | 0.00 | 0.00 | 0.00 | 91 | 1009.2 |
| 20260510070528 | 51 | 147 | 2.6 | 5.2 | 0.00 | 0.00 | 0.00 | 91 | 1009.1 |
| 20260510070144 | 51 | 144 | 0.9 | 6.1 | 0.00 | 0.00 | 0.00 | 91 | 1009.1 |
| 20260510065644 | 51 | 188 | 0.9 | 7.8 | 0.00 | 0.00 | 0.00 | 91 | 1009.1 |
| 20260510065027 | 51 | 160 | 5.2 | 8.7 | 0.00 | 0.00 | 0.00 | 91 | 1009.0 |
| 20260510064529 | 51 | 139 | 7.0 | 7.8 | 0.00 | 0.00 | 0.00 | 91 | 1008.9 |
| 20260510064027 | 51 | 257 | 3.5 | 7.8 | 0.00 | 0.00 | 0.00 | 91 | 1008.9 |
| 20260510063528 | 51 | 187 | 0.9 | 9.6 | 0.00 | 0.00 | 0.00 | 91 | 1008.8 |
| 20260510063145 | 51 | 164 | 8.7 | 9.6 | 0.00 | 0.00 | 0.00 | 91 | 1008.8 |
| 20260510062527 | 51 | 187 | 2.6 | 10.4 | 0.00 | 0.00 | 0.00 | 91 | 1008.7 |
| 20260510062027 | 51 | 192 | 5.2 | 10.4 | 0.00 | 0.00 | 0.00 | 91 | 1008.8 |
| 20260510061529 | 51 | 243 | 1.7 | 7.8 | 0.00 | 0.00 | 0.00 | 91 | 1008.7 |
| 20260510061027 | 51 | 170 | 5.2 | 7.8 | 0.00 | 0.00 | 0.00 | 91 | 1008.8 |
| 20260510060643 | 51 | 197 | 1.7 | 8.7 | 0.00 | 0.00 | 0.00 | 91 | 1008.8 |
| 20260510060028 | 51 | 190 | 2.6 | 8.7 | 0.00 | 0.00 | 0.00 | 91 | 1008.9 |
| 20260510055528 | 51 | 197 | 4.3 | 9.6 | 0.00 | 0.00 | 0.00 | 91 | 1008.9 |
| 20260510055259 | 51 | 132 | 4.3 | 9.6 | 0.00 | 0.00 | 0.00 | 91 | 1009.0 |
| 20260510054643 | 51 | 187 | 3.5 | 5.2 | 0.00 | 0.00 | 0.00 | 91 | 1009.1 |
| 20260510054142 | 51 | 216 | 1.7 | 6.1 | 0.00 | 0.00 | 0.00 | 91 | 1009.1 |
| 20260510053528 | 51 | 215 | 2.6 | 4.3 | 0.00 | 0.00 | 0.00 | 91 | 1009.2 |
| 20260510053029 | 51 | 187 | 0.0 | 2.6 | 0.00 | 0.00 | 0.00 | 91 | 1009.2 |
| 20260510052757 | 51 | 187 | 0.0 | 2.6 | 0.00 | 0.00 | 0.00 | 91 | 1009.0 |
| 20260510052027 | 51 | 160 | 0.9 | 2.6 | 0.00 | 0.00 | 0.00 | 91 | 1009.1 |
| 20260510051530 | 51 | 189 | 1.7 | 2.6 | 0.00 | 0.00 | 0.00 | 91 | 1009.1 |
| 20260510051258 | 51 | 200 | 0.0 | 4.3 | 0.00 | 0.00 | 0.00 | 91 | 1008.9 |
| 20260510050528 | 51 | 131 | 1.7 | 6.1 | 0.00 | 0.00 | 0.00 | 91 | 1009.2 |
| 20260510050143 | 51 | 152 | 3.5 | 7.0 | 0.00 | 0.00 | 0.00 | 91 | 1009.3 |
| 20260510045528 | 51 | 213 | 0.9 | 6.1 | 0.00 | 0.00 | 0.00 | 91 | 1009.2 |
| 20260510045257 | 51 | 253 | 0.9 | 7.0 | 0.00 | 0.00 | 0.00 | 91 | 1009.1 |
| 20260510044528 | 51 | 216 | 4.3 | 7.0 | 0.00 | 0.00 | 0.00 | 90 | 1009.1 |
| 20260510044028 | 51 | 197 | 2.6 | 6.1 | 0.00 | 0.00 | 0.00 | 90 | 1009.1 |
| 20260510043642 | 51 | 198 | 1.7 | 6.1 | 0.00 | 0.00 | 0.00 | 90 | 1009.2 |
| 20260510043028 | 51 | 199 | 2.6 | 6.1 | 0.00 | 0.00 | 0.00 | 90 | 1009.2 |
| 20260510042528 | 51 | 176 | 0.9 | 7.0 | 0.00 | 0.00 | 0.00 | 90 | 1009.1 |
| 20260510042027 | 51 | 157 | 4.3 | 7.0 | 0.00 | 0.00 | 0.00 | 90 | 1009.2 |
| 20260510041529 | 51 | 192 | 1.7 | 6.1 | 0.00 | 0.00 | 0.00 | 90 | 1009.1 |
| 20260510041028 | 51 | 146 | 3.5 | 7.8 | 0.00 | 0.00 | 0.00 | 90 | 1009.1 |
| 20260510040527 | 51 | 214 | 2.6 | 7.8 | 0.00 | 0.00 | 0.00 | 90 | 1009.2 |
| 20260510040028 | 51 | 209 | 0.9 | 7.0 | 0.00 | 0.00 | 0.00 | 90 | 1009.3 |
| 20260510035528 | 51 | 189 | 1.7 | 6.1 | 0.00 | 0.60 | 0.60 | 89 | 1009.2 |
| 20260510035028 | 51 | 154 | 5.2 | 6.1 | 0.00 | 0.60 | 0.60 | 89 | 1009.0 |
| 20260510034644 | 51 | 145 | 0.9 | 7.0 | 0.00 | 0.60 | 0.60 | 89 | 1009.0 |
| 20260510034027 | 51 | 183 | 0.0 | 7.0 | 0.00 | 0.60 | 0.60 | 89 | 1009.1 |
| 20260510033643 | 51 | 260 | 0.9 | 6.1 | 0.00 | 0.60 | 0.60 | 89 | 1009.1 |
| 20260510033029 | 51 | 218 | 1.7 | 3.5 | 0.00 | 0.60 | 0.60 | 89 | 1009.1 |
| 20260510032527 | 51 | 140 | 0.0 | 3.5 | 0.00 | 0.60 | 0.60 | 89 | 1009.3 |
| 20260510032143 | 52 | 203 | 0.0 | 4.3 | 0.00 | 0.60 | 0.60 | 88 | 1009.3 |
| 20260510031529 | 52 | 195 | 3.5 | 4.3 | 0.00 | 0.60 | 0.60 | 88 | 1009.4 |
| 20260510031142 | 52 | 187 | 1.7 | 7.0 | 0.00 | 0.60 | 0.60 | 88 | 1009.3 |
| 20260510030528 | 52 | 193 | 5.2 | 7.0 | 0.00 | 0.60 | 0.60 | 88 | 1009.4 |
| 20260510030027 | 51 | 203 | 2.6 | 7.0 | 0.00 | 0.60 | 0.60 | 89 | 1009.3 |
| 20260510025528 | 51 | 202 | 3.5 | 7.0 | 0.00 | 0.60 | 0.60 | 89 | 1009.2 |
| 20260510025027 | 51 | 208 | 3.5 | 7.8 | 0.00 | 0.60 | 0.60 | 89 | 1009.2 |
| 20260510024529 | 51 | 185 | 6.1 | 7.8 | 0.00 | 0.60 | 0.60 | 90 | 1009.3 |
| 20260510024028 | 51 | 231 | 0.9 | 6.1 | 0.00 | 0.60 | 0.60 | 90 | 1009.3 |
| 20260510023528 | 51 | 220 | 0.9 | 3.5 | 0.00 | 0.60 | 0.60 | 90 | 1009.4 |
| 20260510023029 | 51 | 212 | 1.7 | 4.3 | 0.00 | 0.60 | 0.60 | 90 | 1009.4 |
| 20260510022528 | 51 | 230 | 2.6 | 3.5 | 0.00 | 0.60 | 0.60 | 90 | 1009.4 |
| 20260510022142 | 51 | 213 | 0.9 | 3.5 | 0.00 | 0.60 | 0.60 | 90 | 1009.4 |
| 20260510021644 | 51 | 213 | 1.7 | 2.6 | 0.00 | 0.60 | 0.60 | 90 | 1009.4 |
| 20260510021027 | 51 | 213 | 1.7 | 2.6 | 0.00 | 0.60 | 0.60 | 90 | 1009.3 |
| 20260510020527 | 51 | 168 | 0.0 | 0.0 | 0.00 | 0.60 | 0.60 | 90 | 1009.2 |
| 20260510020030 | 51 | 168 | 0.0 | 1.7 | 0.00 | 0.60 | 0.60 | 89 | 1009.3 |
| 20260510015643 | 51 | 149 | 0.0 | 4.3 | 0.00 | 0.60 | 0.60 | 89 | 1009.3 |
| 20260510015027 | 51 | 149 | 0.9 | 7.0 | 0.00 | 0.60 | 0.60 | 89 | 1009.4 |
| 20260510014528 | 51 | 199 | 3.5 | 5.2 | 0.00 | 0.60 | 0.60 | 89 | 1009.5 |
| 20260510014143 | 51 | 224 | 0.0 | 5.2 | 0.00 | 0.60 | 0.60 | 89 | 1009.5 |
| 20260510013642 | 51 | 224 | 0.0 | 7.0 | 0.00 | 0.60 | 0.60 | 89 | 1009.5 |
| 20260510013144 | 51 | 164 | 3.5 | 3.5 | 0.00 | 0.60 | 0.60 | 89 | 1009.6 |
| 20260510012527 | 51 | 215 | 1.7 | 4.3 | 0.00 | 0.60 | 0.60 | 89 | 1009.4 |
| 20260510012143 | 51 | 228 | 1.7 | 4.3 | 0.00 | 0.60 | 0.60 | 89 | 1009.5 |
| 20260510011529 | 51 | 232 | 0.9 | 5.2 | 0.00 | 0.60 | 0.60 | 89 | 1009.4 |
| 20260510011030 | 52 | 220 | 3.5 | 5.2 | 0.00 | 0.60 | 0.60 | 88 | 1009.4 |
| 20260510010527 | 52 | 213 | 4.3 | 6.1 | 0.00 | 0.60 | 0.60 | 88 | 1009.4 |
| 20260510010144 | 52 | 218 | 2.6 | 5.2 | 0.00 | 0.60 | 0.60 | 88 | 1009.4 |
| 20260510005527 | 52 | 187 | 0.9 | 7.8 | 0.00 | 0.60 | 0.60 | 88 | 1009.3 |
| 20260510005028 | 52 | 190 | 0.9 | 7.8 | 0.00 | 0.60 | 0.60 | 88 | 1009.2 |
| 20260510004528 | 52 | 158 | 1.7 | 7.0 | 0.00 | 0.60 | 0.60 | 87 | 1009.1 |
| 20260510004257 | 52 | 228 | 4.3 | 7.8 | 0.00 | 0.60 | 0.60 | 88 | 1009.0 |
| 20260510003757 | 51 | 210 | 1.7 | 7.8 | 0.00 | 0.60 | 0.60 | 88 | 1008.9 |
| 20260510003029 | 51 | 116 | 6.1 | 7.8 | 0.00 | 0.60 | 0.60 | 89 | 1008.8 |
| 20260510002529 | 51 | 191 | 0.9 | 5.2 | 0.00 | 0.60 | 0.60 | 89 | 1008.8 |
| 20260510002142 | 51 | 170 | 0.9 | 4.3 | 0.00 | 0.60 | 0.60 | 89 | 1008.7 |
| 20260510001528 | 51 | 120 | 2.6 | 4.3 | 0.00 | 0.60 | 0.60 | 89 | 1008.6 |
| 20260510001028 | 51 | 156 | 1.7 | 6.1 | 0.00 | 0.60 | 0.60 | 89 | 1008.5 |
| 20260510000528 | 52 | 179 | 1.7 | 6.1 | 0.00 | 0.60 | 0.60 | 89 | 1008.5 |
| 20260510000028 | 52 | 135 | 0.9 | 6.1 | 0.00 | 0.60 | 0.60 | 89 | 1008.4 |
| 20260509235642 | 52 | 196 | 2.6 | 5.2 | 0.00 | 0.60 | 0.60 | 88 | 1008.5 |
| 20260509235027 | 52 | 83 | 1.7 | 7.8 | 0.00 | 0.60 | 0.60 | 88 | 1008.3 |
| 20260509234644 | 52 | 220 | 0.9 | 7.8 | 0.00 | 0.60 | 0.60 | 88 | 1008.3 |
| 20260509234142 | 52 | 274 | 0.9 | 8.7 | 0.00 | 0.60 | 0.60 | 88 | 1008.2 |
| 20260509233757 | 52 | 140 | 7.0 | 8.7 | 0.00 | 0.60 | 0.60 | 88 | 1008.2 |
| 20260509233028 | 52 | 135 | 3.5 | 8.7 | 0.00 | 0.60 | 0.60 | 88 | 1008.2 |
| 20260509232528 | 52 | 190 | 3.5 | 7.0 | 0.00 | 0.60 | 0.60 | 89 | 1008.1 |
| 20260509232027 | 52 | 114 | 5.2 | 9.6 | 0.00 | 0.60 | 0.60 | 89 | 1008.2 |
| 20260509231528 | 52 | 116 | 2.6 | 10.4 | 0.00 | 0.60 | 0.60 | 89 | 1008.1 |
| 20260509231028 | 52 | 120 | 2.6 | 8.7 | 0.00 | 0.60 | 0.60 | 89 | 1008.1 |
| 20260509230528 | 52 | 131 | 7.8 | 8.7 | 0.00 | 0.60 | 0.60 | 89 | 1008.1 |
| 20260509230029 | 52 | 138 | 3.5 | 6.1 | 0.00 | 0.60 | 0.60 | 89 | 1008.2 |
| 20260509225527 | 52 | 177 | 1.7 | 6.1 | 0.00 | 0.60 | 0.60 | 89 | 1008.2 |
| 20260509225028 | 52 | 223 | 0.0 | 6.1 | 0.00 | 0.60 | 0.60 | 89 | 1008.2 |
| 20260509224528 | 52 | 206 | 0.9 | 7.0 | 0.00 | 0.60 | 0.60 | 89 | 1008.2 |
| 20260509224028 | 52 | 200 | 1.7 | 7.0 | 0.00 | 0.60 | 0.60 | 89 | 1008.2 |
| 20260509223643 | 52 | 197 | 3.5 | 6.1 | 0.00 | 0.60 | 0.60 | 90 | 1008.3 |
| 20260509223028 | 52 | 208 | 0.9 | 7.0 | 0.00 | 0.60 | 0.60 | 90 | 1008.3 |
| 20260509222527 | 52 | 230 | 1.7 | 7.0 | 0.00 | 0.60 | 0.60 | 90 | 1008.3 |
| 20260509222027 | 52 | 162 | 4.3 | 7.8 | 0.00 | 0.60 | 0.60 | 91 | 1008.2 |
| 20260509221529 | 52 | 157 | 1.7 | 7.0 | 0.00 | 0.60 | 0.60 | 90 | 1008.2 |
| 20260509221027 | 52 | 129 | 2.6 | 6.1 | 0.00 | 0.60 | 0.60 | 91 | 1008.3 |
| 20260509220643 | 52 | 216 | 0.9 | 6.1 | 0.00 | 0.60 | 0.60 | 91 | 1008.2 |
| 20260509220028 | 52 | 181 | 1.7 | 8.7 | 0.00 | 0.60 | 0.60 | 91 | 1008.2 |
| 20260509215643 | 52 | 184 | 5.2 | 8.7 | 0.00 | 0.60 | 0.60 | 91 | 1008.2 |
| 20260509215027 | 52 | 201 | 1.7 | 6.1 | 0.00 | 0.60 | 0.60 | 92 | 1008.3 |
| 20260509214528 | 51 | 164 | 0.9 | 7.0 | 0.00 | 0.60 | 0.60 | 93 | 1008.3 |
| 20260509214143 | 51 | 131 | 0.9 | 5.2 | 0.00 | 0.60 | 0.60 | 94 | 1008.3 |
| 20260509213528 | 51 | 224 | 0.0 | 1.7 | 0.00 | 0.60 | 0.60 | 94 | 1008.4 |
| 20260509213143 | 51 | 224 | 0.0 | 3.5 | 0.00 | 0.60 | 0.60 | 95 | 1008.5 |
| 20260509212527 | 50 | 224 | 1.7 | 2.6 | 0.00 | 0.60 | 0.60 | 95 | 1008.7 |
| 20260509212143 | 50 | 224 | 1.7 | 3.5 | 0.00 | 0.60 | 0.60 | 95 | 1008.6 |
| 20260509211644 | 49 | 225 | 1.7 | 3.5 | 0.00 | 0.60 | 0.60 | 95 | 1008.7 |
| 20260509211028 | 49 | 279 | 0.0 | 1.7 | 0.00 | 0.60 | 0.60 | 95 | 1008.6 |
| 20260509210527 | 48 | 320 | 0.0 | 1.7 | 0.00 | 0.60 | 0.60 | 95 | 1008.7 |
| 20260509210144 | 48 | 320 | 0.0 | 3.5 | 0.00 | 0.60 | 0.60 | 95 | 1008.7 |
| 20260509205528 | 48 | 4 | 0.9 | 4.3 | 0.00 | 0.60 | 0.60 | 95 | 1008.8 |
| 20260509205027 | 48 | 324 | 2.6 | 4.3 | 0.00 | 0.60 | 0.60 | 95 | 1009.0 |
| 20260509204529 | 48 | 336 | 2.6 | 3.5 | 0.00 | 0.60 | 0.60 | 95 | 1009.1 |
| 20260509204027 | 48 | 227 | 0.0 | 3.5 | 0.05 | 0.60 | 0.60 | 95 | 1009.2 |
| 20260509203528 | 48 | 354 | 3.5 | 3.5 | 0.06 | 0.60 | 0.60 | 95 | 1009.3 |
| 20260509203258 | 48 | 288 | 1.7 | 2.6 | 0.06 | 0.60 | 0.60 | 95 | 1009.4 |
| 20260509202528 | 47 | 336 | 0.0 | 1.7 | 0.04 | 0.59 | 0.59 | 95 | 1009.5 |
| 20260509202027 | 47 | 337 | 0.9 | 2.6 | 0.04 | 0.59 | 0.59 | 95 | 1009.5 |
| 20260509201528 | 47 | 336 | 0.9 | 2.6 | 0.05 | 0.57 | 0.57 | 95 | 1009.5 |
| 20260509201028 | 47 | 345 | 1.7 | 2.6 | 0.08 | 0.57 | 0.57 | 95 | 1009.5 |
| 20260509200528 | 47 | 59 | 0.9 | 1.7 | 0.11 | 0.57 | 0.57 | 95 | 1009.6 |
| 20260509200028 | 47 | 59 | 0.0 | 1.7 | 0.11 | 0.56 | 0.56 | 94 | 1009.6 |
| 20260509195643 | 47 | 60 | 0.0 | 1.7 | 0.09 | 0.56 | 0.56 | 94 | 1009.7 |
| 20260509195027 | 47 | 59 | 0.0 | 1.7 | 0.09 | 0.55 | 0.55 | 95 | 1009.7 |
| 20260509194529 | 47 | 81 | 0.0 | 1.7 | 0.09 | 0.54 | 0.54 | 94 | 1009.7 |
| 20260509194028 | 47 | 14 | 0.0 | 1.7 | 0.09 | 0.54 | 0.54 | 95 | 1009.7 |
| 20260509193528 | 47 | 11 | 0.0 | 0.9 | 0.10 | 0.53 | 0.53 | 95 | 1009.8 |
| 20260509193028 | 47 | 8 | 0.0 | 0.9 | 0.05 | 0.52 | 0.52 | 94 | 1009.9 |
| 20260509192527 | 47 | 4 | 0.0 | 0.9 | 0.06 | 0.51 | 0.51 | 95 | 1009.9 |
| 20260509192027 | 47 | 4 | 0.0 | 2.6 | 0.06 | 0.51 | 0.51 | 95 | 1009.8 |
| 20260509191644 | 47 | 8 | 0.9 | 2.6 | 0.06 | 0.51 | 0.51 | 95 | 1009.9 |
| 20260509191027 | 46 | 301 | 0.0 | 2.6 | 0.07 | 0.50 | 0.50 | 94 | 1009.9 |
| 20260509190527 | 46 | 43 | 1.7 | 2.6 | 0.07 | 0.50 | 0.50 | 94 | 1009.8 |
| 20260509190029 | 46 | 48 | 0.0 | 3.5 | 0.07 | 0.49 | 0.49 | 94 | 1009.8 |
| 20260509185527 | 46 | 45 | 0.9 | 3.5 | 0.07 | 0.48 | 0.48 | 94 | 1009.8 |
| 20260509185027 | 46 | 342 | 2.6 | 3.5 | 0.08 | 0.48 | 0.48 | 94 | 1009.9 |
| 20260509184529 | 46 | 19 | 1.7 | 3.5 | 0.10 | 0.47 | 0.47 | 94 | 1009.9 |
| 20260509184027 | 46 | 54 | 1.7 | 3.5 | 0.10 | 0.47 | 0.47 | 94 | 1009.9 |
| 20260509183642 | 46 | 70 | 0.9 | 2.6 | 0.12 | 0.46 | 0.46 | 94 | 1009.9 |
| 20260509183144 | 46 | 48 | 0.9 | 2.6 | 0.11 | 0.45 | 0.45 | 94 | 1010.0 |
| 20260509182642 | 46 | 45 | 0.9 | 3.5 | 0.12 | 0.44 | 0.44 | 94 | 1010.1 |
| 20260509182142 | 46 | 40 | 1.7 | 3.5 | 0.10 | 0.43 | 0.43 | 94 | 1010.1 |
| 20260509181528 | 46 | 21 | 1.7 | 3.5 | 0.15 | 0.42 | 0.42 | 94 | 1010.1 |
| 20260509181027 | 46 | 16 | 0.0 | 2.6 | 0.17 | 0.41 | 0.41 | 94 | 1010.1 |
| 20260509180642 | 46 | 56 | 0.0 | 2.6 | 0.14 | 0.40 | 0.40 | 94 | 1010.2 |
| 20260509180144 | 46 | 335 | 0.0 | 0.0 | 0.12 | 0.39 | 0.39 | 94 | 1010.3 |
| 20260509175527 | 46 | 76 | 0.0 | 2.6 | 0.17 | 0.38 | 0.38 | 94 | 1010.3 |
| 20260509175143 | 46 | 76 | 0.9 | 2.6 | 0.16 | 0.36 | 0.36 | 94 | 1010.4 |
| 20260509174758 | 46 | 73 | 0.0 | 2.6 | 0.16 | 0.35 | 0.35 | 94 | 1010.4 |
| 20260509174142 | 45 | 77 | 0.0 | 2.6 | 0.14 | 0.33 | 0.33 | 94 | 1010.5 |
| 20260509173528 | 46 | 21 | 1.7 | 2.6 | 0.09 | 0.32 | 0.32 | 94 | 1010.5 |
| 20260509173028 | 46 | 66 | 0.9 | 2.6 | 0.09 | 0.31 | 0.31 | 94 | 1010.6 |
| 20260509172528 | 45 | 33 | 0.0 | 3.5 | 0.07 | 0.31 | 0.31 | 94 | 1010.6 |
| 20260509172027 | 45 | 59 | 3.5 | 3.5 | 0.08 | 0.30 | 0.30 | 94 | 1010.6 |